Track COSMOS 2485 (GLONASS) now! COSMOS 2485 (GLONASS) is classified as:
1 39155U 13019A 26250.96886674 .00000039 00000-0 00000-0 0 9998 2 39155 65.4699 70.8288 0022969 226.3838 133.4785 2.13102930104048